Location: Abyssinia Baptist Church
(32.7840°N, 96.7578°W)
Time: 10:21:46
(UTC+00:00)

Cosmos 1939 Rocket - Pass Details

Date: 08 December 2021
Orbit: 531 x 582 km, 97.4° (Epoch: 28 January)

Event Time Altitude Azimuth Distance (km) Brightness Sun altitude
Rises 12:29:46 0° 11° (N) 2,700 6.2 -10.0°
Reaches altitude 10° 12:31:54 10° 12° (NNE) 1,798 5.4 -9.6°
Maximum altitude 12:35:46 88° 93° (E) 538 2.8 -8.8°
Drops below altitude 10° 12:39:36 10° 192° (SSW) 1,773 5.6 -8.1°
Sets 12:41:42 0° 192° (SSW) 2,658 6.4 -7.6°
